GW1238 Weather Reports


time (UTC)temp
F
wind
direction
speed
knots
gust
knots
rain 1hr
in
rain 24hr
in
rain mn
in
humidity
%
barometer
mb
20260508085056 49 286 1.7 1.7 0.00 0.00 0.00 88 1019.4
20260508084552 50 298 1.7 1.7 0.00 0.00 0.00 88 1019.4
20260508084049 50 302 1.7 1.7 0.00 0.00 0.00 88 1019.4
20260508083547 50 287 1.7 1.7 0.00 0.00 0.00 88 1019.4
20260508083043 51 282 1.7 1.7 0.00 0.00 0.00 88 1019.4
20260508082539 51 302 0.9 1.7 0.00 0.00 0.00 88 1019.3
20260508082037 51 282 1.7 1.7 0.00 0.00 0.00 87 1019.2
20260508081534 51 286 1.7 1.7 0.00 0.00 0.00 86 1019.4
20260508081030 51 283 0.9 2.6 0.00 0.00 0.00 87 1019.5
20260508080529 51 284 1.7 1.7 0.00 0.00 0.00 87 1019.5
20260508080025 52 295 0.9 0.9 0.00 0.00 0.00 86 1019.5
20260508075522 52 286 0.9 0.9 0.00 0.00 0.00 86 1019.2
20260508075019 51 339 0.9 0.9 0.00 0.00 0.00 86 1019.5
20260508074517 51 300 0.9 0.9 0.00 0.00 0.00 88 1019.3
20260508074014 51 289 0.9 1.7 0.00 0.00 0.00 88 1019.5
20260508073511 52 304 0.9 1.7 0.00 0.00 0.00 88 1019.5
20260508073009 52 333 0.0 1.7 0.00 0.00 0.00 88 1019.4
20260508072504 51 316 1.7 1.7 0.00 0.00 0.00 89 1019.5
20260508072002 52 298 0.9 1.7 0.00 0.00 0.00 89 1019.5
20260508071459 51 281 1.7 1.7 0.00 0.00 0.00 89 1019.5
20260508070957 51 311 0.9 1.7 0.00 0.00 0.00 89 1019.6
20260508070454 51 290 1.7 1.7 0.00 0.00 0.00 88 1019.9
20260508065952 51 279 0.9 1.7 0.00 0.00 0.00 88 1019.7
20260508065450 51 280 1.7 1.7 0.00 0.00 0.00 89 1019.8
20260508064948 51 297 0.9 0.9 0.00 0.00 0.00 89 1019.7
20260508064445 51 299 1.7 1.7 0.00 0.00 0.00 89 1019.8
20260508063943 52 312 0.9 2.6 0.00 0.00 0.00 88 1019.8
20260508063440 51 298 1.7 2.6 0.00 0.00 0.00 87 1019.8
20260508062938 51 297 1.7 2.6 0.00 0.00 0.00 85 1019.8
20260508062436 52 295 1.7 1.7 0.00 0.00 0.00 85 1019.9
20260508061932 52 308 0.9 1.7 0.00 0.00 0.00 85 1020.0
20260508061430 52 291 0.9 1.7 0.00 0.00 0.00 86 1019.8
20260508060926 53 304 1.7 1.7 0.00 0.00 0.00 86 1019.9
20260508060424 53 310 1.7 1.7 0.00 0.00 0.00 84 1019.9
20260508055919 53 308 0.9 1.7 0.00 0.00 0.00 85 1020.0
20260508055416 53 278 0.9 1.7 0.00 0.00 0.00 85 1020.0
20260508054913 53 54 0.0 0.9 0.00 0.00 0.00 85 1019.8
20260508054410 53 23 0.0 0.9 0.00 0.00 0.00 85 1019.7
20260508053907 53 276 1.7 1.7 0.00 0.00 0.00 84 1019.7
20260508053404 54 284 0.9 1.7 0.00 0.00 0.00 83 1019.6
20260508052901 54 61 0.9 0.9 0.00 0.00 0.00 81 1019.8
20260508052359 54 325 0.9 1.7 0.00 0.00 0.00 84 1019.7
20260508051855 54 316 0.9 1.7 0.00 0.00 0.00 83 1019.5
20260508051350 55 65 0.0 0.9 0.00 0.00 0.00 79 1019.7
20260508050847 54 8 0.9 1.7 0.00 0.00 0.00 83 1019.6
20260508050344 54 296 2.6 2.6 0.00 0.00 0.00 85 1019.6
20260508045840 54 301 2.6 2.6 0.00 0.00 0.00 85 1019.7
20260508045337 54 303 1.7 2.6 0.00 0.00 0.00 85 1019.5
20260508044835 54 302 1.7 2.6 0.00 0.00 0.00 86 1019.7
20260508044331 54 297 1.7 2.6 0.00 0.00 0.00 86 1019.7
20260508043827 54 301 2.6 2.6 0.00 0.00 0.00 87 1019.7
20260508043324 55 279 1.7 2.6 0.00 0.00 0.00 87 1019.3
20260508042821 55 284 1.7 2.6 0.00 0.00 0.00 86 1019.2
20260508042319 55 293 1.7 2.6 0.00 0.00 0.00 86 1019.4
20260508041815 55 289 1.7 2.6 0.00 0.00 0.00 86 1019.4
20260508041312 55 309 1.7 1.7 0.00 0.00 0.00 85 1019.5
20260508040808 55 308 1.7 2.6 0.00 0.00 0.00 85 1019.4
20260508040306 55 297 1.7 2.6 0.00 0.00 0.00 86 1019.7
20260508035803 55 289 1.7 2.6 0.00 0.22 0.22 85 1019.4
20260508035300 55 299 1.7 2.6 0.00 0.22 0.22 86 1019.4
20260508034756 55 297 1.7 2.6 0.00 0.22 0.22 86 1019.4
20260508034254 55 294 1.7 2.6 0.00 0.22 0.22 87 1019.5
20260508033751 55 302 1.7 2.6 0.00 0.22 0.22 86 1019.4
20260508033249 55 300 1.7 2.6 0.00 0.22 0.22 85 1019.4
20260508032746 55 289 1.7 2.6 0.00 0.22 0.22 86 1019.4
20260508032243 55 285 1.7 2.6 0.00 0.22 0.22 88 1019.3
20260508031740 55 295 1.7 2.6 0.00 0.22 0.22 88 1019.4
20260508031236 55 291 1.7 1.7 0.00 0.22 0.22 89 1019.2
20260508030733 56 300 1.7 2.6 0.00 0.22 0.22 90 1019.1
20260508030230 55 306 1.7 2.6 0.00 0.22 0.22 90 1019.0
20260508025727 55 302 1.7 2.6 0.00 0.22 0.22 90 1019.0
20260508025224 55 297 1.7 2.6 0.00 0.22 0.22 90 1019.1
20260508024720 55 308 1.7 2.6 0.00 0.22 0.22 90 1019.0
20260508024217 55 288 1.7 2.6 0.00 0.22 0.22 90 1018.9
20260508023713 55 302 2.6 2.6 0.00 0.22 0.22 90 1019.0
20260508023211 55 279 1.7 2.6 0.00 0.22 0.22 91 1018.7
20260508022706 55 287 2.6 2.6 0.00 0.22 0.22 91 1018.9
20260508022204 55 287 1.7 2.6 0.00 0.22 0.22 91 1019.2
20260508021700 55 287 2.6 2.6 0.00 0.22 0.22 91 1019.0
20260508021155 55 300 2.6 3.5 0.00 0.22 0.22 91 1018.9
20260508020654 55 297 1.7 2.6 0.00 0.22 0.22 91 1019.1
20260508020151 55 293 2.6 2.6 0.00 0.22 0.22 91 1018.9
20260508015648 55 285 2.6 2.6 0.00 0.22 0.22 91 1018.9
20260508015145 55 295 1.7 2.6 0.00 0.22 0.22 91 1018.7
20260508014641 56 286 2.6 2.6 0.00 0.22 0.22 91 1018.8
20260508014137 55 283 1.7 2.6 0.00 0.22 0.22 91 1018.8
20260508013634 56 287 1.7 1.7 0.00 0.22 0.22 90 1018.5
20260508013131 56 296 1.7 2.6 0.00 0.22 0.22 90 1018.7
20260508012628 56 289 1.7 1.7 0.00 0.22 0.22 89 1018.5
20260508012125 56 302 1.7 1.7 0.00 0.22 0.22 89 1018.4
20260508011624 56 297 1.7 1.7 0.00 0.22 0.22 88 1018.3
20260508011120 56 302 1.7 1.7 0.00 0.22 0.22 88 1018.2
20260508010617 57 294 1.7 1.7 0.00 0.22 0.22 87 1017.9
20260508010115 57 282 1.7 1.7 0.00 0.22 0.22 86 1018.0
20260508005611 57 296 1.7 2.6 0.00 0.22 0.22 85 1018.1
20260508005108 58 297 1.7 1.7 0.00 0.22 0.22 85 1017.9
20260508004604 58 306 1.7 2.6 0.00 0.22 0.22 85 1017.8
20260508004101 58 295 1.7 1.7 0.00 0.22 0.22 85 1017.7
20260508003557 58 298 0.9 1.7 0.00 0.22 0.22 85 1017.6
20260508003055 59 292 0.9 1.7 0.00 0.22 0.22 85 1017.7
20260508002551 59 287 0.9 1.7 0.00 0.22 0.22 84 1017.5
20260508002049 60 286 0.9 1.7 0.00 0.22 0.22 83 1017.6
20260508001544 60 285 0.9 1.7 0.00 0.22 0.22 83 1017.5
20260508001041 61 264 0.9 1.7 0.00 0.22 0.22 81 1017.5
20260508000537 61 253 0.9 1.7 0.00 0.22 0.22 82 1017.3
20260508000034 62 280 0.9 2.6 0.00 0.22 0.22 78 1017.4
20260507235531 62 285 0.9 0.9 0.00 0.22 0.22 76 1017.4
20260507235028 63 283 0.9 0.9 0.00 0.22 0.22 74 1017.3
20260507234524 63 240 0.0 0.9 0.00 0.22 0.22 73 1017.2
20260507234021 64 278 0.9 1.7 0.00 0.22 0.22 73 1017.2
20260507233518 65 276 0.9 1.7 0.00 0.22 0.22 72 1017.0
20260507233017 66 300 2.6 2.6 0.00 0.22 0.22 63 1017.0
20260507232512 66 329 1.7 2.6 0.00 0.22 0.22 64 1017.3
20260507232010 67 281 1.7 2.6 0.00 0.22 0.22 64 1017.0
20260507231506 69 195 0.0 0.9 0.00 0.22 0.22 63 1017.5
20260507231003 68 185 0.0 0.9 0.00 0.22 0.22 62 1017.2
20260507230500 68 299 1.7 2.6 0.00 0.22 0.22 60 1017.0
20260507225955 68 114 0.9 1.7 0.00 0.22 0.22 60 1016.9
20260507225452 69 334 1.7 1.7 0.00 0.22 0.22 59 1017.1
20260507224948 69 307 0.9 3.5 0.00 0.22 0.22 60 1016.9
20260507224444 69 325 1.7 5.2 0.00 0.22 0.22 59 1017.2
20260507223941 69 72 0.9 3.5 0.00 0.22 0.22 58 1017.1
20260507223437 70 342 0.9 2.6 0.00 0.22 0.22 57 1017.2
20260507222935 69 357 0.9 1.7 0.00 0.22 0.22 57 1017.1
20260507222431 69 329 1.7 5.2 0.00 0.22 0.22 57 1017.1
20260507221927 70 309 1.7 2.6 0.00 0.22 0.22 58 1016.8
20260507221424 70 283 2.6 3.5 0.00 0.22 0.22 57 1016.9
20260507220920 71 260 0.9 1.7 0.00 0.22 0.22 57 1016.9
20260507220418 70 185 0.0 1.7 0.00 0.22 0.22 57 1016.9
20260507215914 69 97 1.7 2.6 0.00 0.22 0.22 62 1016.9
20260507215411 69 233 0.0 0.9 0.00 0.22 0.22 63 1017.0
20260507214908 68 329 1.7 2.6 0.00 0.22 0.22 59 1016.9
20260507214406 69 20 1.7 2.6 0.00 0.22 0.22 59 1016.9
20260507213901 69 158 0.0 2.6 0.00 0.22 0.22 60 1016.9
20260507213358 69 247 2.6 3.5 0.00 0.22 0.22 59 1016.9
20260507212855 69 299 2.6 2.6 0.00 0.22 0.22 60 1016.7
20260507212351 69 268 3.5 5.2 0.00 0.22 0.22 58 1016.7
20260507211848 69 239 1.7 3.5 0.00 0.22 0.22 59 1016.8
20260507211344 68 303 0.0 3.5 0.00 0.22 0.22 59 1016.6
20260507210842 69 37 2.6 3.5 0.00 0.22 0.22 60 1016.6
20260507210338 68 279 2.6 6.1 0.00 0.22 0.22 59 1016.7
20260507205835 68 272 1.7 3.5 0.00 0.22 0.22 61 1016.5
20260507205332 68 46 0.9 2.6 0.00 0.22 0.22 62 1016.6
20260507204827 68 262 2.6 6.1 0.00 0.22 0.22 61 1016.6
20260507204325 68 260 2.6 5.2 0.00 0.22 0.22 64 1016.4
20260507203823 67 49 1.7 1.7 0.00 0.22 0.22 64 1016.4
20260507203321 67 288 0.9 1.7 0.00 0.22 0.22 66 1016.4
20260507202816 68 271 0.9 1.7 0.00 0.22 0.22 68 1016.6
20260507202313 67 272 0.9 2.6 0.00 0.22 0.22 69 1016.4
20260507201808 67 177 1.7 2.6 0.00 0.22 0.22 71 1016.4
20260507201304 67 173 0.0 0.0 0.00 0.22 0.22 72 1016.7
20260507200801 66 83 1.7 2.6 0.00 0.22 0.22 74 1016.6
20260507200257 65 83 0.9 1.7 0.00 0.22 0.22 73 1016.4
20260507195753 65 96 1.7 1.7 0.00 0.22 0.22 73 1016.4
20260507195250 65 95 1.7 1.7 0.00 0.22 0.22 74 1016.5
20260507194748 66 90 0.9 1.7 0.00 0.22 0.22 73 1016.6
20260507194243 66 124 0.0 0.9 0.00 0.22 0.22 71 1016.5
20260507193740 65 39 0.9 1.7 0.00 0.22 0.22 73 1016.7
20260507193237 65 50 1.7 2.6 0.00 0.22 0.22 74 1016.7
20260507192733 65 93 1.7 1.7 0.00 0.22 0.22 74 1016.9
20260507192230 65 86 1.7 1.7 0.00 0.22 0.22 72 1016.8
20260507191726 64 53 0.9 1.7 0.00 0.22 0.22 74 1016.7
20260507191223 65 111 0.9 1.7 0.00 0.22 0.22 73 1016.9
20260507190720 65 129 0.0 0.9 0.00 0.22 0.22 72 1016.8
20260507190219 65 166 0.9 0.9 0.00 0.22 0.22 73 1017.0
20260507185717 64 87 0.0 1.7 0.00 0.22 0.22 74 1017.1
20260507185214 64 156 0.9 1.7 0.00 0.22 0.22 74 1017.1
20260507184711 64 116 0.9 1.7 0.00 0.22 0.22 75 1017.3
20260507184209 64 92 1.7 2.6 0.00 0.22 0.22 73 1017.3
20260507183705 65 115 0.0 2.6 0.00 0.22 0.22 72 1017.0
20260507183202 65 118 1.7 1.7 0.00 0.22 0.22 72 1016.9
20260507182659 64 111 0.0 1.7 0.00 0.22 0.22 73 1017.2
20260507182154 64 108 1.7 2.6 0.00 0.22 0.22 77 1017.0
20260507181651 64 107 0.9 2.6 0.00 0.22 0.22 74 1017.3
20260507181148 63 97 1.7 1.7 0.00 0.22 0.22 75 1017.2
20260507180644 63 104 1.7 1.7 0.00 0.22 0.22 76 1017.2
20260507180142 62 95 0.9 2.6 0.00 0.22 0.22 76 1017.1
20260507175637 62 105 2.6 3.5 0.00 0.22 0.22 78 1017.2
20260507175135 62 97 3.5 3.5 0.00 0.22 0.22 79 1017.5
20260507174631 62 118 1.7 3.5 0.00 0.22 0.22 77 1017.4
20260507174130 62 93 2.6 3.5 0.00 0.22 0.22 78 1017.3
20260507173626 61 70 3.5 3.5 0.00 0.22 0.22 78 1017.5
20260507173124 61 82 2.6 2.6 0.00 0.22 0.22 77 1017.7
20260507172619 61 39 0.9 3.5 0.00 0.22 0.22 77 1017.8
20260507172117 61 61 3.5 3.5 0.00 0.22 0.22 77 1017.8
20260507171612 62 77 1.7 2.6 0.00 0.22 0.22 76 1017.9
20260507171109 62 64 1.7 2.6 0.00 0.22 0.22 79 1017.9
20260507170606 61 86 3.5 3.5 0.00 0.22 0.22 77 1017.9
20260507170103 61 42 0.9 5.2 0.00 0.22 0.22 79 1017.8
20260507165558 62 45 1.7 3.5 0.00 0.22 0.22 79 1017.7
20260507165055 61 72 4.3 5.2 0.00 0.22 0.22 79 1017.9
20260507164551 62 82 3.5 3.5 0.00 0.22 0.22 78 1017.9
20260507164049 61 295 2.6 2.6 0.00 0.22 0.22 78 1017.8
20260507163546 61 75 0.9 1.7 0.00 0.22 0.22 78 1017.7
20260507163044 60 46 1.7 2.6 0.00 0.22 0.22 80 1017.9
20260507162538 60 332 1.7 2.6 0.00 0.22 0.22 81 1017.7
20260507162035 60 279 1.7 2.6 0.00 0.22 0.22 84 1017.8
20260507161532 59 307 2.6 2.6 0.00 0.22 0.22 85 1017.7
20260507161028 59 224 0.0 2.6 0.00 0.22 0.22 86 1017.7
20260507160524 59 296 0.9 1.7 0.00 0.22 0.22 88 1017.8
20260507160021 58 6 1.7 1.7 0.00 0.22 0.22 88 1018.0
20260507155516 59 273 0.9 0.9 0.00 0.22 0.22 89 1017.9
20260507155014 58 48 0.9 1.7 0.00 0.22 0.22 89 1018.0
20260507154510 58 124 0.0 0.9 0.00 0.22 0.22 89 1017.8
20260507154009 58 96 0.0 1.7 0.00 0.22 0.22 89 1017.7
20260507153504 57 126 0.0 2.6 0.00 0.22 0.22 89 1017.8
20260507153000 58 137 0.0 0.9 0.00 0.22 0.22 91 1017.8
20260507152456 58 49 0.0 0.9 0.00 0.22 0.22 92 1017.7
20260507151953 57 332 0.9 1.7 0.00 0.22 0.22 92 1017.6
20260507151449 58 269 0.9 1.7 0.00 0.22 0.22 93 1017.5
20260507150946 58 129 0.0 1.7 0.00 0.22 0.22 93 1017.5
20260507150443 58 29 0.0 0.9 0.00 0.22 0.22 93 1017.4
20260507145939 57 287 0.0 1.7 0.00 0.22 0.22 94 1017.4
20260507145435 57 321 0.9 1.7 0.00 0.22 0.22 93 1017.5
20260507144932 57 306 0.9 0.9 0.00 0.22 0.22 94 1017.5
20260507144429 57 40 0.0 2.6 0.00 0.22 0.22 94 1017.4
20260507143926 57 305 0.0 1.7 0.00 0.22 0.22 94 1017.6
20260507143424 57 323 0.9 1.7 0.00 0.22 0.22 95 1017.6
20260507142920 57 103 0.0 0.9 0.00 0.22 0.22 96 1017.6
20260507142416 56 303 0.9 1.7 0.00 0.22 0.22 96 1017.3
20260507141913 56 48 0.0 1.7 0.00 0.22 0.22 97 1017.4
20260507141409 56 288 1.7 1.7 0.00 0.22 0.22 97 1017.3
20260507140906 56 87 0.0 0.9 0.00 0.22 0.22 97 1017.3
20260507140403 57 112 0.0 0.9 0.00 0.22 0.22 98 1017.3
20260507135901 56 73 0.0 1.7 0.00 0.22 0.22 98 1017.1
20260507135357 56 329 0.9 1.7 0.00 0.22 0.22 98 1017.4
20260507134855 56 195 0.0 1.7 0.00 0.22 0.22 99 1017.2
20260507134350 56 291 0.9 1.7 0.00 0.22 0.22 99 1017.2
20260507133847 56 101 0.0 2.6 0.00 0.22 0.22 99 1017.2
20260507133342 56 33 0.0 1.7 0.00 0.22 0.22 99 1017.3
20260507132841 56 275 0.9 1.7 0.00 0.22 0.22 99 1017.2
20260507132337 56 247 0.9 2.6 0.00 0.22 0.22 99 1017.0
20260507131834 56 270 0.9 1.7 0.00 0.22 0.22 99 1017.0
20260507131331 56 98 0.0 1.7 0.00 0.22 0.22 99 1017.0
20260507130828 56 289 0.0 1.7 0.00 0.22 0.22 99 1016.5
20260507130325 56 17 0.9 2.6 0.00 0.22 0.22 99 1016.7
20260507125824 55 336 1.7 3.5 0.00 0.22 0.22 99 1016.5
20260507125321 56 266 0.9 1.7 0.00 0.22 0.22 99 1016.5
20260507124818 56 337 0.9 1.7 0.00 0.22 0.22 99 1016.7
20260507124314 56 6 0.9 0.9 0.00 0.22 0.22 99 1016.6
20260507123813 56 341 0.0 0.9 0.00 0.22 0.22 99 1016.5
20260507123310 56 341 0.0 0.9 0.00 0.22 0.22 99 1016.4
20260507122806 56 249 0.0 2.6 0.00 0.22 0.22 99 1016.3
20260507122306 56 16 0.0 1.7 0.00 0.22 0.22 99 1016.3
20260507121758 56 67 0.0 0.9 0.00 0.22 0.22 99 1016.4
20260507121254 57 346 0.0 0.0 0.00 0.22 0.22 99 1016.3
20260507120750 56 301 0.9 1.7 0.00 0.22 0.22 99 1016.3
20260507120247 56 324 0.9 0.9 0.00 0.22 0.22 99 1016.5
20260507115743 57 53 0.0 1.7 0.00 0.22 0.22 99 1016.2
20260507115239 56 249 0.0 1.7 0.00 0.22 0.22 99 1016.3
20260507114734 56 124 0.0 0.0 0.00 0.22 0.22 99 1016.3
20260507114232 56 23 0.0 0.9 0.00 0.22 0.22 99 1016.2
20260507113730 57 136 0.0 0.0 0.00 0.22 0.22 99 1016.0
20260507113226 56 55 0.0 0.9 0.00 0.22 0.22 99 1016.0
20260507112724 57 291 1.7 2.6 0.00 0.22 0.22 99 1016.0
20260507112221 57 289 1.7 1.7 0.00 0.22 0.22 99 1015.6
20260507111718 57 3 0.0 1.7 0.00 0.22 0.22 99 1015.7
20260507111215 57 39 0.0 0.9 0.00 0.22 0.22 99 1015.7
20260507110711 57 37 0.0 0.9 0.00 0.22 0.22 99 1015.5
20260507110207 57 342 0.9 1.7 0.00 0.22 0.22 99 1015.7
20260507105704 57 273 0.0 0.9 0.00 0.22 0.22 99 1015.4
20260507105200 57 345 0.9 0.9 0.00 0.22 0.22 99 1015.3
20260507104658 58 117 0.0 0.0 0.00 0.22 0.22 99 1015.4
20260507104154 58 303 1.7 1.7 0.00 0.22 0.22 99 1015.3
20260507103650 58 82 1.7 1.7 0.00 0.22 0.22 99 1014.9
20260507103147 58 19 0.0 0.9 0.00 0.22 0.22 99 1015.1
20260507102643 58 269 0.0 0.9 0.00 0.22 0.22 99 1015.1
20260507102140 58 129 0.0 0.9 0.00 0.22 0.22 99 1014.9
20260507101636 58 186 0.0 0.9 0.00 0.22 0.22 99 1015.0
20260507101131 58 248 0.9 1.7 0.00 0.22 0.22 99 1015.2
20260507100629 58 312 0.0 0.9 0.00 0.22 0.22 99 1015.3
20260507100127 58 321 0.0 1.7 0.00 0.22 0.22 99 1015.5
20260507095625 58 31 0.9 1.7 0.00 0.22 0.22 99 1015.4
20260507095121 58 113 0.0 0.9 0.07 0.22 0.22 99 1015.2
20260507094617 58 346 0.9 0.9 0.07 0.22 0.22 99 1015.4
20260507094114 59 148 0.0 0.9 0.05 0.21 0.21 99 1015.7
20260507093612 58 67 0.9 1.7 0.24 0.21 0.21 99 1015.3
20260507093111 58 27 0.9 0.9 0.31 0.20 0.20 99 1015.5
20260507092606 58 90 0.0 1.7 0.12 0.17 0.17 99 1015.3
20260507092103 58 83 0.0 0.0 0.07 0.15 0.15 99 1015.5
20260507091600 58 260 0.9 2.6 0.07 0.15 0.15 99 1015.9
20260507091056 58 280 0.0 2.6 0.00 0.14 0.14 99 1015.9
20260507090552 59 287 0.9 2.6 0.05 0.14 0.14 99 1015.6
20260507090049 59 260 0.9 2.6 0.05 0.14 0.14 99 1015.0
20260507085546 59 335 1.7 1.7 0.07 0.13 0.13 99 1014.9